Change the Weather History Date:

Friday, April 26, 2013

  Actual Average Record
Temperature  
Mean Temperature 78 °F -  
Max Temperature 87 °F 82 °F 87 °F (1998)
Min Temperature 70 °F 68 °F 32 °F (2004)
Cooling Degree Days 14    
Growing Degree Days 28 (Base 50)    
Moisture  
Dew Point 68 °F    
Average Humidity 70    
Maximum Humidity 94    
Minimum Humidity 37    
Precipitation  
Precipitation 0.16 in 0.16 in - ()
Sea Level Pressure  
Sea Level Pressure 29.99 in    
Wind  
Wind Speed 12 mph ()    
Max Wind Speed 24 mph    
Max Gust Speed 29 mph    
Visibility 7.0 miles    
Events Rain    
Averages and records for this station are not official NWS values.
T = Trace of Precipitation, MM = Missing Value Source: Averaged Metar Reports

Daily Weather History Graph

Daily Weather History Graph

Search for Another Location

Airport or City:

Trip Planner

Search our weather history database for the weather conditions in past years. The results will help you decide how hot, cold, wet, or windy it might be!

Date:

Astronomy

Apr. 26, 2013 Rise Set
Actual Time 6:27 AM AEST 6:01 PM AEST
Civil Twilight 6:05 AM AEST 6:23 PM AEST
Nautical Twilight 5:40 AM AEST 6:49 PM AEST
Astronomical Twilight 5:14 AM AEST 7:14 PM AEST
Moon 6:22 PM AEST (4/26) 6:32 AM AEST (4/26)
Length of Visible Light 12h 17m
Length of Day
11h 33m
Full, 100% of the Moon is Illuminated
Apr 26
Full
May 2
Last Quarter
May 10
New
May 18
First Quarter
May 25
Full

Hourly Weather History & Observations

Time (AEST) Temp. Heat Index Dew Point Humidity Pressure Visibility Wind Dir Wind Speed Gust Speed Precip Events Conditions
12:00 AM 76 °F - 68 °F 69% 30.02 in - South 11.5 mph - -  
12:00 AM 75.2 °F - 68.0 °F 78% 30.01 in 6.2 mi South 11.5 mph - N/A   Partly Cloudy
12:30 AM 75.2 °F - 66.2 °F 73% 30.01 in 6.2 mi South 9.2 mph - N/A   Partly Cloudy
1:00 AM 76 °F - 67 °F 67% 30.01 in - South 10.4 mph - -  
1:00 AM 75.2 °F - 68.0 °F 78% 30.01 in 6.2 mi South 10.4 mph - N/A   Partly Cloudy
1:30 AM 75.2 °F - 68.0 °F 78% 30.01 in 6.2 mi South 9.2 mph - N/A   Partly Cloudy
2:00 AM 75.2 °F - 68.0 °F 78% 29.98 in 6.2 mi South 9.2 mph - N/A   Unknown
2:30 AM 75.2 °F - 68.0 °F 78% 29.98 in 6.2 mi South 10.4 mph - N/A   Partly Cloudy
3:00 AM 75 °F - 67 °F 71% 29.98 in - South 11.5 mph - -  
3:00 AM 75.2 °F - 68.0 °F 78% 29.98 in 6.2 mi South 11.5 mph - N/A   Scattered Clouds
3:30 AM 75.2 °F - 68.0 °F 78% 29.95 in 6.2 mi South 10.4 mph - N/A   Scattered Clouds
4:00 AM 75 °F - 67 °F 71% 29.97 in - South 10.4 mph - -  
4:00 AM 75.2 °F - 68.0 °F 78% 29.95 in 6.2 mi South 10.4 mph - N/A   Scattered Clouds
4:30 AM 75.2 °F - 66.2 °F 73% 29.95 in 6.2 mi South 11.5 mph - N/A   Scattered Clouds
5:00 AM 75.2 °F - 68.0 °F 78% 29.95 in 6.2 mi South 10.4 mph - N/A   Scattered Clouds
5:30 AM 71.6 °F - 68.0 °F 88% 29.98 in 6.2 mi SE 11.5 mph - N/A   Scattered Clouds
6:00 AM 75 °F - 67 °F 70% 29.98 in 19 mi South 11.5 mph - -   Partly Cloudy
6:00 AM 75.2 °F - 68.0 °F 78% 29.98 in 6.2 mi South 11.5 mph - N/A   Partly Cloudy
6:30 AM 75.2 °F - 68.0 °F 78% 29.98 in 6.2 mi South 11.5 mph - N/A   Mostly Cloudy
7:00 AM 75 °F - 67 °F 71% 30.01 in - SSE 12.7 mph - -  
7:00 AM 75.2 °F - 68.0 °F 78% 30.01 in 6.2 mi SSE 12.7 mph - N/A   Mostly Cloudy
7:30 AM 77.0 °F - 68.0 °F 74% 30.01 in 6.2 mi SSE 12.7 mph - N/A   Mostly Cloudy
8:00 AM 77.0 °F - 68.0 °F 74% 30.01 in 6.2 mi South 12.7 mph - N/A   Mostly Cloudy
8:30 AM 78.8 °F - 68.0 °F 69% 30.01 in 6.2 mi South 12.7 mph - N/A   Mostly Cloudy
9:00 AM 80 °F - 67 °F 57% 30.03 in 19 mi SSE 13.8 mph - -   Partly Cloudy
9:00 AM 80.6 °F 83.2 °F 68.0 °F 65% 30.01 in 6.2 mi SSE 13.8 mph - N/A   Mostly Cloudy
9:30 AM 80.6 °F 82.7 °F 66.2 °F 61% 30.04 in 6.2 mi South 11.5 mph - N/A   Mostly Cloudy
10:00 AM 83 °F - 67 °F 50% 30.04 in - SSE 13.8 mph - -  
10:00 AM 82.4 °F 85.4 °F 68.0 °F 62% 30.04 in 6.2 mi SSE 13.8 mph - N/A   Mostly Cloudy
10:30 AM 84.2 °F 87.3 °F 68.0 °F 58% 30.01 in 6.2 mi SSE 15.0 mph - N/A   Mostly Cloudy
11:00 AM 86.0 °F 88.2 °F 66.2 °F 51% 30.01 in 6.2 mi SE 18.4 mph - N/A   Mostly Cloudy
11:30 AM 86.0 °F 88.2 °F 66.2 °F 51% 30.01 in 6.2 mi SE 20.7 mph - N/A   Mostly Cloudy
12:00 PM 87 °F - 65 °F 38% 29.99 in 19 mi SE 24.2 mph - -   Partly Cloudy
12:00 PM 86.0 °F 87.3 °F 64.4 °F 48% 29.98 in 6.2 mi SE 24.2 mph - N/A   Mostly Cloudy
12:30 PM 86.0 °F 87.3 °F 64.4 °F 48% 29.98 in 6.2 mi SE 24.2 mph - N/A   Mostly Cloudy
1:00 PM 86 °F - 64 °F 37% 29.97 in - SE 24.2 mph - -  
1:00 PM 86.0 °F 87.3 °F 64.4 °F 48% 29.95 in 6.2 mi SE 24.2 mph - N/A   Overcast
1:30 PM 86.0 °F 88.2 °F 66.2 °F 51% 29.95 in 6.2 mi SE 21.9 mph - N/A   Overcast
2:00 PM 86.0 °F 88.2 °F 66.2 °F 51% 29.95 in 6.2 mi SE 24.2 mph - N/A   Overcast
2:30 PM 86.0 °F 89.4 °F 68.0 °F 55% 29.95 in 6.2 mi SE 21.9 mph - N/A   Overcast
3:00 PM 84 °F - 69 °F 51% 29.95 in 19 mi SE 19.6 mph - -   Partly Cloudy
3:00 PM 84.2 °F 87.3 °F 68.0 °F 58% 29.95 in 6.2 mi SE 19.6 mph - N/A   Overcast
3:30 PM 82.4 °F 85.4 °F 68.0 °F 62% 29.95 in 6.2 mi SE 21.9 mph - N/A   Overcast
3:46 PM 80.6 °F 83.2 °F 68.0 °F 65% 29.95 in 6.2 mi SSE 17.3 mph 28.8 mph N/A   Overcast
4:00 PM 82 °F - 69 °F 56% 29.97 in - SSE 19.6 mph - -  
4:00 PM 82.4 °F 86.3 °F 69.8 °F 66% 29.95 in 6.2 mi SSE 19.6 mph - N/A Rain Light Rain Showers
4:30 PM 77.0 °F - 69.8 °F 78% 29.98 in 6.2 mi South 13.8 mph - N/A   Mostly Cloudy
5:00 PM 77.0 °F - 69.8 °F 78% 29.98 in 6.2 mi South 10.4 mph - N/A   Mostly Cloudy
5:30 PM 78.8 °F - 68.0 °F 69% 29.98 in 6.2 mi South 15.0 mph - N/A   Mostly Cloudy
6:00 PM 76 °F - 69 °F 73% 29.98 in - South 15.0 mph - -   Overcast
6:00 PM 77.0 °F - 69.8 °F 78% 29.98 in 6.2 mi South 15.0 mph - N/A   Mostly Cloudy
6:30 PM 75.2 °F - 69.8 °F 83% 29.98 in 6.2 mi South 12.7 mph - N/A   Mostly Cloudy
7:00 PM 75 °F - 69 °F 77% 30.00 in - South 13.8 mph - -  
7:00 PM 75.2 °F - 69.8 °F 83% 29.98 in 6.2 mi South 13.8 mph - N/A   Mostly Cloudy
8:00 PM 75.2 °F - 68.0 °F 78% 30.01 in 6.2 mi South 12.7 mph - N/A   Mostly Cloudy
8:30 PM 75.2 °F - 68.0 °F 78% 30.01 in 6.2 mi South 11.5 mph - N/A   Mostly Cloudy
9:00 PM 76 °F - 67 °F 68% 30.02 in - South 12.7 mph - -  
9:00 PM 75.2 °F - 68.0 °F 78% 30.01 in 6.2 mi South 12.7 mph - N/A   Mostly Cloudy
9:30 PM 75.2 °F - 68.0 °F 78% 30.01 in 6.2 mi SSE 15.0 mph - N/A   Mostly Cloudy
9:50 PM 75.2 °F - 69.8 °F 83% 30.04 in 4.3 mi SE 12.7 mph - N/A Rain Rain Showers
10:00 PM 74 °F - 71 °F 86% 30.04 in - SE 13.8 mph - -  
10:00 PM 73.4 °F - 69.8 °F 88% 30.01 in 4.3 mi SE 13.8 mph - N/A Rain Rain Showers
10:18 PM 73.4 °F - 69.8 °F 88% 30.01 in 2.5 mi SE 13.8 mph - N/A Rain Rain Showers
10:30 PM 71.6 °F - 69.8 °F 94% 30.01 in 3.7 mi SE 16.1 mph - N/A Rain Light Rain Showers
11:00 PM 73.4 °F - 69.8 °F 88% 30.01 in 6.2 mi South 10.4 mph - N/A   Mostly Cloudy
11:30 PM 75.2 °F - 68.0 °F 78% 29.98 in 6.2 mi South 11.5 mph - N/A   Scattered Clouds